Terug naar catalogus

FENGYUN 1C DEB

LostSSO
NORAD 31144·DEBRIS·🇨🇳 China

Gelanceerd May 10, 1999 vanaf Taiyuan Satellite Launch Center

Loading…

Volgende Passages (komende 24 uur)

TLE

VerouderdSource: Space-Track

Epoch: Oct 3, 2013, 08:06 UTC

1 31144U 99025BGW 13276.33812043 +.00000206 +00000-0 +16243-3 0  9998
2 31144 099.2351 319.5653 0098724 273.1648 086.6520 14.00794070335052

Volg FENGYUN 1C DEB in realtime met AllMySat

Download on the App Store